Japanese version Home page |
Updated on October 12, 2008 |
|
Orbital ElementsEpoch = 2008 Feb. 24.0 TT T = 2008 Feb. 26.1914 TT Peri. = 130.6410 e = 0.574210 Node = 352.0642 2000.0 q = 1.708753 AU Incl. = 11.1181 a = 4.013132 AU n = 0.1225967 P = 8.039 years
|
Magnitudes Graphm1 = 12.5 + 5 log d + 20.0 log r(t - 15)
|
The orbital elements are printed on IAUC 8900.
|